Regional Weather Roundup
Issued by NWS

Home | Current Version | Previous Version | Graphics & Text | Print | Product List | Glossary On
Versions: 1 2 3 4 5 6 7 8 9 10 11 12 13 14 15 16 17 18 19 20 21 22 23 24 25 26 27 28 29 30 31 32 33 34 35 36 37 38 39 40 41 42 43 44 45 46 47 48 49 50
000
ASUS43 KMKX 211910
RWRWI

WISCONSIN REGIONAL WEATHER ROUNDUP
NATIONAL WEATHER SERVICE MILWAUKEE/SULLIVAN WI
200 PM CDT SAT APR 21 2018

NOTE: "FAIR" INDICATES FEW OR NO CLOUDS BELOW 12,000 FEET WITH NO
SIGNIFICANT WEATHER AND/OR OBSTRUCTIONS TO VISIBILITY.

WIZ001-002-006>008-014>016-023>028-212000-
NORTHWEST WISCONSIN

CITY           SKY/WX    TMP DP  RH WIND       PRES   REMARKS
SUPERIOR ARPT  FAIR      57  17  21 CALM      30.36F
ASHLAND        FAIR      56  11  16 VRB5      30.37F
HAYWARD        FAIR      53  12  19 SW6       30.37F
SIREN          FAIR      56  19  23 SW6       30.37F
CUMBERLAND     FAIR      48  18  29 CALM      30.38F
RICE LAKE      FAIR      52  19  26 SW6       30.39F
CHETEK         FAIR      54  19  26 CALM      30.37F
LADYSMITH      FAIR      55  20  25 S3        30.39F
EAU CLAIRE     FAIR      57  30  35 W6        30.36F
MENOMONIE      FAIR      58  26  29 S5        30.38S
NEW RICHMOND   FAIR      54  18  23 CALM      30.38F
OSCEOLA        FAIR      55  23  29 SE3       30.41S
$$

WIZ003>005-009-010-017-018-212000-
NORTH CENTRAL WISCONSIN

CITY           SKY/WX    TMP DP  RH WIND       PRES   REMARKS
MANITOWISH WTR FAIR      52   9  17 CALM      30.35F
ARBOR VITAE    FAIR      57  12  17 S3        30.35F
WOODRUFF       FAIR      57  12  17 S3        30.35F
RHINELANDER    FAIR      54  14  20 SW6       30.37F
EAGLE RIVER    FAIR      55   8  15 CALM      30.35F
LAND O LAKES   FAIR      56   8  14 N3        30.36F
PHILLIPS       FAIR      53  11  19 SW6       30.36F
TOMAHAWK       FAIR      55  18  23 CALM      30.37F
MEDFORD        FAIR      50  22  33 SE6       30.37F
MERRILL          N/A     55  24  30 SW6       30.39S
$$

WIZ029-030-035-036-043>047-212000-
CENTRAL WISCONSIN

CITY           SKY/WX    TMP DP  RH WIND       PRES   REMARKS
WAUSAU         FAIR      53  23  31 W8        30.36F
MOSINEE        MOSUNNY   54  25  32 SW7       30.40S
MARSHFIELD     FAIR      53  29  39 NW6       30.37F
STEVENS POINT  FAIR      53  20  28 SW5       30.38F
WAUPACA        FAIR      59  16  18 SE3       30.40F
WAUTOMA        FAIR      55  27  34 SW10      30.40F
WISC RAPIDS    FAIR      55  24  30 CALM      30.40F
CAMP DOUGLAS   PTSUNNY   55  27  33 SW5       30.39F
$$

WIZ011>013-019>022-031-037>040-048>050-212000-
NORTHEAST WISCONSIN

CITY           SKY/WX    TMP DP  RH WIND       PRES   REMARKS
ANTIGO         FAIR      51  25  35 SW6       30.39S
SHAWANO        FAIR      58  17  19 SW6       30.39F
OCONTO         FAIR      55  17  22 S7        30.39F
STURGEON BAY   FAIR      54  17  23 SW8       30.40F
GREEN BAY      FAIR      50  23  34 S7        30.42S
MANITOWOC      FAIR      48  28  46 E7        30.42F
APPLETON       PTSUNNY   54  16  22 SW7       30.40F
CLINTONVILLE   FAIR      55  17  23 S6        30.40F
OSHKOSH        FAIR      50  22  33 S8        30.41F
$$

WIZ032>034-041-042-053>061-212000-
SOUTHWEST WISCONSIN

CITY           SKY/WX    TMP DP  RH WIND       PRES   REMARKS
LA CROSSE      CLOUDY    55  34  45 S13       30.40F
SPARTA         PTSUNNY   57  30  35 S6        30.41S
VIROQUA        PTSUNNY   49  36  62 CALM      30.41F
BOSCOBEL       CLOUDY    54  36  50 CALM      30.42F
PRAIRIE DU CHI CLOUDY    51  35  54 E6        30.41F
PLATTEVILLE    CLOUDY    51  38  59 E9        30.41F
$$

WIZ056-057-062-063-064-067-068-212000-
SOUTH CENTRAL WISCONSIN

CITY           SKY/WX    TMP DP  RH WIND       PRES   REMARKS
REEDSBURG      CLOUDY    51  33  49 W8        30.42S
BARABOO/DELLS  CLOUDY    50  26  39 SW7       30.42S
LONE ROCK      CLOUDY    54  34  46 VRB3      30.42F
MINERAL POINT  CLOUDY    52  36  54 SE6       30.41S
MADISON        CLOUDY    51  33  50 SW7       30.43S
MIDDLETON      PTSUNNY   53  33  46 W7        30.43F
WATERTOWN      CLOUDY    51  28  41 CALM      30.43S
MONROE         PTSUNNY   52  32  46 CALM      30.42S
JANESVILLE     CLOUDY    52  34  50 CALM      30.43S
$$

WIZ051-052-058>065-066-070>072-212000-
SOUTHEAST WISCONSIN

CITY           SKY/WX    TMP DP  RH WIND       PRES   REMARKS
MILWAUKEE      PTSUNNY   54  23  30 E5        30.43F
WAUKESHA       CLOUDY    52  18  25 CALM      30.43F
MILWAUKEE/TIMM CLOUDY    54  12  19 SW6       30.43F
RACINE         CLOUDY    50  17  27 E6        30.44F
BURLINGTON     FAIR      52  27  37 NW8       30.43S
KENOSHA        CLOUDY    55  24  30 CALM      30.43S
FOND DU LAC    FAIR      49  19  30 S7        30.41F
SHEBOYGAN      FAIR      55  28  35 S7        30.41F
WEST BEND      FAIR      54  19  26 W7        30.42S
JUNEAU         FAIR      49  29  46 SW3       30.43F
$$

LSZ147-162-212000-
LAKE SUPERIOR

STATION/POSITION TIME  TEMP    WIND        PRES    WAVE
                       AIR SEA DIR/SP/G            HT/PER
                 (UTC) (F)     (DEG/KT/KT) (MB)    (FT/S)
DEVILS ISLAND    1900   46     270/  8/  9 1029.2F
SAXON HARBOR     1830   41     320/  4/  4 1028.1F
$$

LMZ867-665-643>646-212000-
LAKE MICHIGAN

STATION/POSITION TIME  TEMP    WIND        PRES    WAVE
                       AIR SEA DIR/SP/G            HT/PER
                 (UTC) (F)     (DEG/KT/KT) (MB)    (FT/S)
NORTHPORT PIER   1830   40                 1028.8F
KEWAUNEE LAKESHO 1842   40     160/  8/ 10 1029.0F
SHEBOYGAN LAKESH 1900   41     160/ 16/ 16 1030.4F
PORT WASHINGTON  1840   48     190/  2/  4 1031.2F
MILWAUKEE LAKESH 1850   44     110/  1/  1   N/A
KENOSHA   LAKESH 1900   42                 1030.5
$$

TC  - TEMPERATURE IN CELSIUS
VSB - VISIBILITY IN STATUTE MILES
WCI - WIND CHILL INDEX
HX  - HEAT INDEX





USA.gov is the U.S. government's official web portal to all federal, state and local government web resources and services.